This is the latest recevied weather packets stored in our database for station/object W0DXV. If no packets are shown the sender has not sent any weather packets the latest 10 day(s).
| Time | Temp. | Humidity | Pressure | Rain* | Wind** | Luminosity | Snow |
|---|---|---|---|---|---|---|---|
| 1777930329 | 24.44° C | 34% | 1009.4 hPa | 0 mm | - | 53 W/m² | - |
| 1777930026 | 25° C | 34% | 1009.3 hPa | 0 mm | - | 55 W/m² | - |
| 1777929723 | 25° C | 33% | 1009.5 hPa | 0 mm | - | 50 W/m² | - |
| 1777929420 | 25° C | 37% | 1009.5 hPa | 0 mm | - | 49 W/m² | - |
| 1777929116 | 25° C | 34% | 1009.4 hPa | 0 mm | - | 50 W/m² | - |
| 1777928814 | 25° C | 33% | 1009.3 hPa | 0 mm | - | 51 W/m² | - |
| 1777928510 | 25° C | 34% | 1009.5 hPa | 0 mm | - | 52 W/m² | - |
| 1777928208 | 25° C | 33% | 1009.4 hPa | 0 mm | - | 53 W/m² | - |
| 1777927905 | 25.56° C | 35% | 1009.5 hPa | 0 mm | - | 55 W/m² | - |
| 1777927603 | 25.56° C | 34% | 1009.6 hPa | 0 mm | - | 171 W/m² | - |
| 1777927302 | 25.56° C | 34% | 1009.8 hPa | 0 mm | - | 294 W/m² | - |
| 1777927000 | 26.11° C | 33% | 1009.7 hPa | 0 mm | - | 460 W/m² | - |
| 1777926697 | 26.67° C | 33% | 1009.7 hPa | 0 mm | - | 473 W/m² | - |
| 1777926392 | 26.11° C | 34% | 1009.8 hPa | 0 mm | - | 485 W/m² | - |
| 1777926089 | 26.11° C | 34% | 1009.8 hPa | 0 mm | - | 496 W/m² | - |
| 1777925786 | 26.11° C | 36% | 1010 hPa | 0 mm | - | 510 W/m² | - |
| 1777925484 | 26.11° C | 33% | 1009.8 hPa | 0 mm | - | 524 W/m² | - |
| 1777925181 | 26.67° C | 35% | 1010 hPa | 0 mm | - | 534 W/m² | - |
| 1777924877 | 27.22° C | 35% | 1009.8 hPa | 0 mm | - | 544 W/m² | - |
| 1777924573 | 26.67° C | 32% | 1010 hPa | 0 mm | - | 556 W/m² | - |
| 1777924269 | 26.11° C | 35% | 1010.1 hPa | 0 mm | - | 568 W/m² | - |
| 1777923966 | 26.11° C | 34% | 1010.3 hPa | 0 mm | - | 582 W/m² | - |
| 1777923662 | 26.67° C | 33% | 1010.1 hPa | 0 mm | - | 594 W/m² | - |
| 1777923358 | 26.11° C | 35% | 1010.2 hPa | 0 mm | - | 603 W/m² | - |
| 1777923057 | 26.67° C | 34% | 1010.4 hPa | 0 mm | - | 596 W/m² | - |
* Rain latest hour (hover to see other rain measurements)
** Current wind speed in m/s (hover to see current wind gust speed)